STARLINK-5371, 55489

Orbit data source: Space-Track

STARLINK-5371, 55489 is a payload satellite owned by SpaceX/Seattle (US) in LEO that was launched on Thu, 02 Feb 2023 UTC via an FALCON 9 launch vehicle from the Air Force Eastern Test Range (AFETR). Payload-class satellites include a variety of spacecraft equipped with specific instruments for various scientific and technological missions. These include communications satellites like Starlink; space stations such as the ISS; scientific satellites like the Hubble; Earth observation satellites from companies like Planet Labs, Umbra, and HawkEye 360; GPS; miniature CubeSats for education and research; and military/defense satellites.

Loading next visibility...
Identifier
55489, 2023-015AS
Orbit
LEO
Country
Flag of USUS
Related business
Manufacturer
SpaceX/Seattle
Mission
Operational Commercial Communications
Bus & Motor
STARLINK, Unknown motor
Mass
305 kg wet, ~290 kg dry
Launch date (UTC)
2023-02-02 (3 years ago)
Launch vehicle
FALCON 9
Launch site
Air Force Eastern Test Range (AFETR)
Object type
Payload
Rocket body
Debris
Shape & HBR
Box + 1 Pan, 10.1 m
Radar Cross Section
13.562 m², Large (>1 m²)

Expand to show TLE details & history
Last TLE update: 12 hours ago

TLE from 12 hours ago
0 STARLINK-5371
1 55489U 23015AS  26132.56774209  .00000387  00000-0  23593-4 0  9990
2 55489  43.0061 339.0669 0001542 263.7063  96.3613 15.27579740180365
Epoch: 2026-05-12T13:37Z
TLE epoch observation values (Epoch: 2026-05-12T13:37:32.916Z)
Latitude
-0.00003°
Longitude
-95.66054°
Altitude
482.943 km
Speed
7.626 km/s
True Right ascension
22h 36m 16s
True Declination
0° 00' 00"
Sunlit
Object was in daylight at epoch
Visualization orbit readout
Latitude
Unknown
Longitude
Unknown
Altitude
Unknown
Speed
Unknown
Apparent Right ascension
Unknown
Apparent Declination
Unknown
Sunlit
N/A
Visualization observer readout
Local Sidereal Time
09:31:32
Azimuth
Unknown
Elevation
Unknown
Doppler factor
Unknown
Orbital elements
Apogee altitude
486.052 km
Perigee altitude
483.936 km
Semi-major axis
6,863.131 km
Eccentricity
0.00015
Inclination
43.0061°
RAAN
339.0669°
Arg. of periapsis
263.7063°
True anomaly
96.37886°
Mean anomaly
96.3613°
Eccentric anomaly
96.37008°
Mean motion
3.81733 °/min
Orbital period
94.31 mins
BSTAR
0.000023593
Loading maneuver chart data...
Computing Atmospheric mass density...
Loading historical data...
Loading historical data...
Loading historical data...
Loading historical data...
Loading historical data...
Loading historical data...
Loading historical data...

Documentation

Showing up to 5 results
|